Content
SEND FEEDBACK

Daily
Averages
Monthly
Summary
United States of America

JEMEZ SPRING, NEW MEXICO


Home > North America > United States > New Mexico
Elevation: 7728 feet     Latitude: 35 46N     Longitude: 106 40W

WEATHER
 
SELECT A DAY
Number of Records: 237,488;   Date Range: 1/1/95 - 9/18/14
 
SHARE

PRINT THIS DATA

[ ← Previous Day ]
WEATHER ALMANAC - FEBRUARY 13, 2013
[ Next Day → ]
[ °C ]   °F
Weather ElementAverageHighLow
Temperature29.8 °F41 °F (3:35 pm)18.5 °F (6:15 am)
Dewpoint10.9 °F16.5 °F (11:15 pm)6.3 °F (11:35 am)
Humidity47.5 %69 % (7:15 am)29 % (2:15 pm)
Barometer30.07 in30.11 in (8:35 am)30.02 in (4:15 pm)
Wind Speed2.5 mph11.5 mph (7:15 pm)
Wind Gust17.3 mph (7:15 pm)
Weather ElementAverage
Visibility10 mi
Wind DirectionNE (48 °)

Weather ElementTotal
Precipitation---
Heating Degree Days35.3 (Base 65)
Averaged from 71 records on February 13, 2013
WEATHER CONDITIONS BREAKOUT
WIND DIRECTION BREAKOUT
WEATHER BY HOUR - FEBRUARY 13, 2013
[ °C ]   °F
Local TimeTemperatureDewpointHumidityBarometerVisibilityWind DirectionWind SpeedGust SpeedPrecipitationEventsConditions
12:35 AM23.5 °F8.6 °F53 %30.10 in10.0 miCalmClear
12:55 AM24.4 °F8.6 °F51 %30.10 in10.0 miCalmClear
1:15 AM23.9 °F7.3 °F49 %30.10 in10.0 miCalmClear
1:35 AM23.4 °F7.5 °F51 %30.10 in10.0 miCalmClear
1:55 AM23.2 °F6.4 °F49 %30.10 in10.0 miCalmClear
2:15 AM22.6 °F7.5 °F52 %30.10 in10.0 miCalmClear
2:35 AM22.1 °F8.6 °F56 %30.10 in10.0 miCalmClear
2:55 AM21.6 °F9.1 °F59 %30.09 in10.0 miCalmClear
3:15 AM21.2 °F8.8 °F59 %30.08 in10.0 miCalmClear
3:35 AM20.3 °F8.6 °F61 %30.08 in10.0 miCalmClear
3:55 AM20.3 °F8.2 °F60 %30.08 in10.0 miCalmClear
4:15 AM20.8 °F8.4 °F59 %30.08 in10.0 miCalmClear
4:35 AM21.0 °F9.1 °F60 %30.08 in10.0 miCalmClear
4:55 AM20.8 °F9.5 °F62 %30.07 in10.0 miCalmClear
5:15 AM20.7 °F7.0 °F56 %30.07 in10.0 miCalmClear
5:35 AM19.8 °F8.6 °F62 %30.08 in10.0 miCalmClear
5:55 AM19.6 °F8.4 °F62 %30.08 in10.0 miCalmClear
6:15 AM18.5 °F7.9 °F63 %30.08 in10.0 miCalmClear
6:35 AM18.5 °F8.4 °F65 %30.07 in10.0 miCalmClear
6:55 AM18.5 °F9.7 °F68 %30.08 in10.0 miCalmClear
7:15 AM18.9 °F10.0 °F69 %30.09 in10.0 miNorth (350°)5.8 mphClear
7:35 AM21.0 °F10.6 °F64 %30.09 in10.0 miCalmClear
7:55 AM21.7 °F10.4 °F62 %30.10 in10.0 miNNE (30°)3.5 mphClear
8:15 AM21.9 °F11.5 °F64 %30.10 in10.0 miNNE (20°)3.5 mphClear
8:35 AM22.5 °F12.6 °F66 %30.11 in10.0 miNNE (30°)3.5 mphClear
8:55 AM23.9 °F13.1 °F63 %30.11 in10.0 miEast (80°)6.9 mphClear
9:15 AM24.6 °F12.9 °F61 %30.11 in10.0 miNE (50°)6.9 mphClear
9:35 AM25.2 °F12.9 °F60 %30.11 in10.0 miCalmClear
9:55 AM27.1 °F13.1 °F56 %30.11 in10.0 miCalmClear
10:15 AM29.3 °F13.1 °F51 %30.11 inCalmClear
10:35 AM30.9 °F12.2 °F46 %30.11 in10.0 miENE (60°)5.8 mphClear
10:55 AM32.4 °F11.8 °F43 %30.10 inNE (50°)6.9 mphClear
11:15 AM33.3 °F10.9 °F40 %30.10 in10.0 miNorth (10°)3.5 mphClear
11:35 AM33.4 °F6.3 °F32 %30.09 in10.0 miNE (40°)8.1 mphClear
11:55 AM34.5 °F7.0 °F32 %30.09 in10.0 miNE (50°)9.2 mphClear
12:15 PM35.1 °F7.0 °F31 %30.08 in10.0 miNNE (30°)9.2 mph16.1 mphClear
12:35 PM35.8 °F7.3 °F31 %30.07 in10.0 miNE (40°)8.1 mphClear
12:55 PM36.7 °F8.1 °F31 %30.06 in10.0 miEast (80°)8.1 mphClear
1:15 PM37.4 °F9.0 °F31 %30.05 in10.0 miNE (50°)5.8 mphClear
1:35 PM38.1 °F8.8 °F30 %30.04 in10.0 miENE (60°)6.9 mphClear
1:55 PM39.0 °F9.7 °F30 %30.04 in10.0 miCalmClear
2:15 PM39.9 °F9.5 °F29 %30.04 in10.0 miCalmClear
2:35 PM40.1 °F10.6 °F30 %30.03 in10.0 miENE (60°)6.9 mphClear
2:55 PM40.6 °F10.2 °F29 %30.03 in10.0 miCalmClear
3:15 PM40.6 °F10.4 °F29 %30.03 in10.0 miCalmClear
3:35 PM41.0 °F11.1 °F29 %30.03 in10.0 miCalmClear
3:55 PM41.0 °F10.9 °F29 %30.03 in10.0 miENE (70°)5.8 mphClear
4:15 PM40.8 °F10.9 °F29 %30.02 in10.0 miEast (100°)5.8 mphClear
4:35 PM40.8 °F10.9 °F29 %30.03 in10.0 miENE (70°)6.9 mphClear
4:55 PM40.1 °F10.9 °F30 %30.03 in10.0 miEast (80°)3.5 mphClear
5:15 PM39.4 °F10.9 °F31 %30.03 in10.0 miEast (100°)3.5 mphClear
5:35 PM39.2 °F10.9 °F31 %30.03 in10.0 miSE (140°)3.5 mphClear
5:55 PM38.5 °F10.9 °F32 %30.04 in10.0 miSE (130°)3.5 mphClear
6:15 PM38.3 °F10.9 °F32 %30.05 in10.0 miCalmClear
6:35 PM37.9 °F10.9 °F33 %30.06 in10.0 miCalmClear
6:55 PM35.4 °F12.6 °F39 %30.06 in10.0 miNNW (340°)6.9 mphClear
7:15 PM34.2 °F14.9 °F45 %30.06 in10.0 miNNW (340°)11.5 mph17.3 mphClear
7:35 PM33.6 °F16.2 °F49 %30.07 in10.0 miNNW (340°)6.9 mphClear
7:55 PM33.3 °F15.8 °F49 %30.07 in10.0 miWNW (290°)4.6 mphClear
8:15 PM32.7 °F15.3 °F49 %30.07 in10.0 miCalmClear
8:35 PM33.6 °F14.0 °F45 %30.07 in10.0 miNW (320°)4.6 mphClear
8:55 PM34.0 °F13.6 °F43 %30.07 in10.0 miCalmClear
9:15 PM32.2 °F14.2 °F48 %30.08 in10.0 miCalmClear
9:35 PM31.8 °F14.9 °F50 %30.08 in10.0 miCalmClear
9:55 PM30.9 °F14.9 °F52 %30.08 in10.0 miCalmClear
10:15 PM32.0 °F14.7 °F49 %30.07 in10.0 miCalmClear
10:35 PM30.6 °F16.0 °F55 %30.08 in10.0 miCalmClear
10:55 PM30.4 °F16.2 °F56 %30.08 in10.0 miCalmClear
11:15 PM29.8 °F16.5 °F58 %30.08 in10.0 miCalmClear
11:35 PM28.8 °F16.0 °F59 %30.08 in10.0 miCalmClear
11:55 PM29.7 °F16.3 °F58 %30.09 in10.0 miCalmClear
Hourly data recorded from KLAM, located miles away from Jemez Spring, New Mexico







STORIES FROM OUR PARTNERS